Location: Unspecified
(0.0000°N, 0.0000°E)
Time: 05:52:52
(UTC+00:00)

Hubble Space Telescope - Pass Details

Date: 22 October 2017
Orbit: 537 x 541 km, 28.5° (Epoch: 23 October)

Event Time Altitude Azimuth Distance (km) Brightness Sun altitude
Exits shadow 04:05:54 16° 188° (S) 1,458 3.0 -24.2°
Drops below altitude 10° 04:07:33 10° 166° (SSE) 1,789 3.7 -23.8°
Sets 04:10:26 0° 145° (SE) 2,682 5.0 -23.1°
